Weather History for Fort Leonard Wood, MO

Change the Weather History Date:

Friday, February 1, 2013

  Actual Average Record
Temperature  
Mean Temperature 16 °F -  
Max Temperature 29 °F 42 °F 66 °F (2003)
Min Temperature 4 °F 27 °F 4 °F (2013)
Degree Days  
Heating Degree Days 48    
Moisture  
Dew Point 6 °F    
Average Humidity 59    
Maximum Humidity 86    
Minimum Humidity 39    
Precipitation  
Precipitation 0.00 in - - ()
Sea Level Pressure  
Sea Level Pressure 30.39 in    
Wind  
Wind Speed 5 mph (South)    
Max Wind Speed 12 mph    
Max Gust Speed -    
Visibility 10 miles    
Events      
Averages and records for this station are not official NWS values.
T = Trace of Precipitation, MM = Missing Value Source: NWS Daily Summary

Daily Weather History Graph

Daily Weather History Graph

Search for Another Location

Airport:

Trip Planner

Search our weather history database for the weather conditions in past years. The results will help you decide how hot, cold, wet, or windy it might be!

Date:

Astronomy

Feb. 01, 2013 Rise Set
Actual Time 7:12 AM CST 5:32 PM CST
Civil Twilight 6:44 AM CST 6:00 PM CST
Nautical Twilight 6:13 AM CST 6:31 PM CST
Astronomical Twilight 5:42 AM CST 7:02 PM CST
Moon 11:32 PM CST (2/1) 9:53 AM CST (2/1)
Length of Visible Light 11h 15m
Length of Day
10h 20m
Waning Gibbous, 70% of the Moon is Illuminated
Feb 1
Waning Gibbous
Feb 3
Last Quarter
Feb 10
New
Feb 17
First Quarter
Feb 25
Full

Hourly Weather History & Observations

Time (CST) Temp. Windchill Dew Point Humidity Pressure Visibility Wind Dir Wind Speed Gust Speed Precip Events Conditions
12:55 AM 9.9 °F -2.2 °F 1.0 °F 68% 30.44 in 10.0 mi WNW 8.1 mph - N/A   Clear
1:55 AM 8.8 °F -2.4 °F 0.9 °F 70% 30.45 in 10.0 mi WNW 6.9 mph - N/A   Clear
2:55 AM 8.1 °F -2.0 °F 0.9 °F 72% 30.45 in 10.0 mi WNW 5.8 mph - N/A   Clear
3:55 AM 6.8 °F - 0.9 °F 77% 30.45 in 10.0 mi Calm Calm - N/A   Clear
4:55 AM 5.7 °F - 0.9 °F 80% 30.45 in 10.0 mi Calm Calm - N/A   Clear
5:55 AM 4.5 °F - 0.5 °F 84% 30.45 in 10.0 mi Calm Calm - N/A   Clear
6:55 AM 4.6 °F - 1.2 °F 86% 30.46 in 10.0 mi Calm Calm - N/A   Clear
7:55 AM 7.2 °F - 1.9 °F 79% 30.48 in 10.0 mi Calm Calm - N/A   Clear
8:55 AM 12.2 °F 4.3 °F 3.0 °F 67% 30.50 in 10.0 mi Variable 4.6 mph - N/A   Clear
9:55 AM 14.4 °F 4.3 °F 1.9 °F 58% 30.52 in 10.0 mi SW 6.9 mph - N/A   Clear
10:55 AM 18.5 °F - 2.3 °F 49% 30.51 in 10.0 mi Calm Calm - N/A   Clear
11:55 AM 21.0 °F 16.2 °F 4.8 °F 50% 30.46 in 10.0 mi SSE 3.5 mph - N/A   Clear
12:55 PM 24.1 °F 16.0 °F 5.9 °F 46% 30.42 in 10.0 mi SE 6.9 mph - N/A   Clear
1:55 PM 27.0 °F 23.0 °F 5.2 °F 40% 30.39 in 10.0 mi Variable 3.5 mph - N/A   Clear
2:55 PM 28.4 °F 22.2 °F 5.9 °F 39% 30.37 in 10.0 mi Variable 5.8 mph - N/A   Scattered Clouds
3:55 PM 28.8 °F 23.7 °F 9.3 °F 44% 30.35 in 10.0 mi South 4.6 mph - N/A   Overcast
4:55 PM 29.1 °F 23.0 °F 12.2 °F 49% 30.33 in 10.0 mi SSE 5.8 mph - N/A   Overcast
5:55 PM 28.9 °F 22.8 °F 13.8 °F 53% 30.31 in 10.0 mi SE 5.8 mph - N/A   Overcast
6:55 PM 29.1 °F 20.6 °F 13.6 °F 52% 30.27 in 10.0 mi SSE 9.2 mph - N/A   Overcast
7:55 PM 28.9 °F 19.2 °F 12.2 °F 50% 30.27 in 10.0 mi SSE 11.5 mph - N/A   Overcast
8:55 PM 28.9 °F 20.4 °F 10.9 °F 47% 30.25 in 10.0 mi South 9.2 mph - N/A   Overcast
9:55 PM 29.3 °F 22.3 °F 11.3 °F 47% 30.26 in 10.0 mi SSE 6.9 mph - N/A   Overcast
10:55 PM 28.9 °F 22.8 °F 11.8 °F 49% 30.28 in 10.0 mi SSW 5.8 mph - N/A   Overcast
11:55 PM 28.9 °F 19.8 °F 13.3 °F 52% 30.24 in 10.0 mi South 10.4 mph - N/A   Overcast